Weather History for Council Bluffs, IA

Change the Weather History Date:

Monday, October 24, 2011

  Actual Average Record
Temperature  
Mean Temperature 61 °F -  
Max Temperature 78 °F 59 °F 78 °F (2011)
Min Temperature 44 °F 41 °F 28 °F (1999)
Degree Days  
Heating Degree Days 4    
Growing Degree Days 11 (Base 50)    
Moisture  
Dew Point 33 °F    
Average Humidity 42    
Maximum Humidity 71    
Minimum Humidity 12    
Precipitation  
Precipitation 0.00 in - - ()
Sea Level Pressure  
Sea Level Pressure 30.02 in    
Wind  
Wind Speed 4 mph (South)    
Max Wind Speed 16 mph    
Max Gust Speed 22 mph    
Visibility 10 miles    
Events      
Averages and records for this station are not official NWS values.
T = Trace of Precipitation, MM = Missing Value Source: NWS Daily Summary

Daily Weather History Graph

Daily Weather History Graph

Search for Another Location

Airport:

Trip Planner

Search our weather history database for the weather conditions in past years. The results will help you decide how hot, cold, wet, or windy it might be!

Date:

Astronomy

Oct. 24, 2011 Rise Set
Actual Time 7:44 AM CDT 6:29 PM CDT
Civil Twilight 7:16 AM CDT 6:57 PM CDT
Nautical Twilight 6:44 AM CDT 7:29 PM CDT
Astronomical Twilight 6:12 AM CDT 8:01 PM CDT
Moon 5:03 AM CDT (10/24) 4:55 PM CDT (10/24)
Length of Visible Light 11h 40m
Length of Day
10h 44m
Waning Crescent, 7% of the Moon is Illuminated
Oct 24
Waning Crescent
Oct 26
New
Nov 2
First Quarter
Nov 10
Full
Nov 18
Last Quarter

Hourly Weather History & Observations

Time (CDT) Temp. Windchill Dew Point Humidity Pressure Visibility Wind Dir Wind Speed Gust Speed Precip Events Conditions
12:15 AM 57.2 °F - 32.0 °F 38% 30.03 in 10.0 mi Calm Calm - N/A   Clear
12:35 AM 53.6 °F - 33.8 °F 47% 30.02 in 10.0 mi Calm Calm - N/A   Clear
12:55 AM 53.6 °F - 33.8 °F 47% 30.03 in 10.0 mi Calm Calm - N/A   Clear
1:15 AM 53.6 °F - 33.8 °F 47% 30.04 in 10.0 mi Calm Calm - N/A   Clear
1:35 AM 55.4 °F - 32.0 °F 41% 30.04 in 10.0 mi Calm Calm - N/A   Clear
1:55 AM 55.4 °F - 32.0 °F 41% 30.04 in 10.0 mi Calm Calm - N/A   Clear
2:15 AM 55.4 °F - 33.8 °F 44% 30.05 in 10.0 mi Calm Calm - N/A   Clear
2:35 AM 46.4 °F 44.3 °F 35.6 °F 66% 30.05 in 10.0 mi SW 4.6 mph - N/A   Clear
2:55 AM 48.2 °F - 35.6 °F 62% 30.06 in 10.0 mi Calm Calm - N/A   Clear
3:15 AM 48.2 °F - 35.6 °F 62% 30.06 in 10.0 mi Calm Calm - N/A   Clear
3:35 AM 48.2 °F - 35.6 °F 62% 30.05 in 10.0 mi Calm Calm - N/A   Clear
3:55 AM 46.4 °F - 35.6 °F 66% 30.05 in 10.0 mi Calm Calm - N/A   Clear
4:15 AM 48.2 °F - 35.6 °F 62% 30.06 in 10.0 mi Calm Calm - N/A   Clear
4:35 AM 46.4 °F - 35.6 °F 66% 30.07 in 10.0 mi Calm Calm - N/A   Clear
4:55 AM 46.4 °F - 35.6 °F 66% 30.07 in 10.0 mi Calm Calm - N/A   Clear
5:15 AM 46.4 °F - 35.6 °F 66% 30.07 in 10.0 mi Calm Calm - N/A   Clear
5:35 AM 44.6 °F 43.1 °F 35.6 °F 71% 30.08 in 10.0 mi South 3.5 mph - N/A   Clear
5:55 AM 46.4 °F 45.2 °F 35.6 °F 66% 30.09 in 10.0 mi SW 3.5 mph - N/A   Clear
6:15 AM 46.4 °F 45.2 °F 35.6 °F 66% 30.09 in 10.0 mi SSW 3.5 mph - N/A   Clear
6:35 AM 46.4 °F 44.3 °F 35.6 °F 66% 30.09 in 10.0 mi SSW 4.6 mph - N/A   Clear
6:55 AM 46.4 °F 45.2 °F 35.6 °F 66% 30.08 in 10.0 mi SSW 3.5 mph - N/A   Clear
7:15 AM 46.4 °F - 35.6 °F 66% 30.09 in 10.0 mi Calm Calm - N/A   Clear
7:35 AM 44.6 °F - 35.6 °F 71% 30.09 in 10.0 mi Calm Calm - N/A   Clear
7:55 AM 44.6 °F 43.1 °F 35.6 °F 71% 30.09 in 10.0 mi SSW 3.5 mph - N/A   Clear
8:15 AM 44.6 °F 43.1 °F 35.6 °F 71% 30.10 in 10.0 mi South 3.5 mph - N/A   Clear
8:35 AM 44.6 °F - 35.6 °F 71% 30.10 in 10.0 mi Calm Calm - N/A   Clear
8:55 AM 46.4 °F - 35.6 °F 66% 30.10 in 10.0 mi Calm Calm - N/A   Clear
9:15 AM 48.2 °F - 37.4 °F 66% 30.10 in 10.0 mi Calm Calm - N/A   Clear
9:35 AM 51.8 °F - 37.4 °F 58% 30.11 in 10.0 mi SSW 3.5 mph - N/A   Clear
9:55 AM 53.6 °F - 39.2 °F 58% 30.11 in 10.0 mi South 4.6 mph - N/A   Clear
10:15 AM 55.4 °F - 35.6 °F 47% 30.11 in 10.0 mi South 6.9 mph - N/A   Clear
10:35 AM 59.0 °F - 35.6 °F 42% 30.10 in 10.0 mi SSW 9.2 mph - N/A   Clear
10:55 AM 60.8 °F - 37.4 °F 42% 30.10 in 10.0 mi SSW 8.1 mph - N/A   Clear
11:15 AM 62.6 °F - 37.4 °F 39% 30.11 in 10.0 mi SW 9.2 mph - N/A   Clear
11:35 AM 64.4 °F - 37.4 °F 37% 30.10 in 10.0 mi SSW 10.4 mph - N/A   Clear
11:55 AM 66.2 °F - 35.6 °F 32% 30.10 in 10.0 mi SW 9.2 mph 16.1 mph N/A   Clear
12:15 PM 66.2 °F - 35.6 °F 32% 30.09 in 10.0 mi SW 8.1 mph - N/A   Clear
12:35 PM 68.0 °F - 35.6 °F 30% 30.08 in 10.0 mi South 9.2 mph - N/A   Clear
12:55 PM 69.8 °F - 33.8 °F 27% 30.07 in 10.0 mi SSW 8.1 mph - N/A   Clear
1:35 PM 71.6 °F - 32.0 °F 23% 30.04 in 10.0 mi SSW 6.9 mph - N/A   Clear
2:15 PM 71.6 °F - 30.2 °F 22% 30.01 in 10.0 mi South 5.8 mph - N/A   Clear
2:35 PM 73.4 °F - 30.2 °F 20% 30.00 in 10.0 mi South 9.2 mph - N/A   Clear
2:55 PM 73.4 °F - 28.4 °F 19% 29.99 in 10.0 mi South 11.5 mph - N/A   Clear
3:15 PM 75.2 °F - 26.6 °F 17% 29.98 in 10.0 mi South 10.4 mph - N/A   Clear
3:35 PM 75.2 °F - 24.8 °F 15% 29.96 in 10.0 mi South 13.8 mph - N/A   Clear
3:55 PM 78.8 °F - 23.0 °F 13% 29.95 in 10.0 mi SSE 15.0 mph 19.6 mph N/A   Clear
4:15 PM 78.8 °F - 21.2 °F 12% 29.94 in 10.0 mi South 16.1 mph 21.9 mph N/A   Clear
4:35 PM 75.2 °F - 23.0 °F 14% 29.93 in 10.0 mi South 15.0 mph 18.4 mph N/A   Clear
4:55 PM 73.4 °F - 24.8 °F 16% 29.93 in 10.0 mi South 11.5 mph - N/A   Clear
5:15 PM 73.4 °F - 24.8 °F 16% 29.92 in 10.0 mi SSE 13.8 mph - N/A   Clear
5:35 PM 73.4 °F - 24.8 °F 16% 29.91 in 10.0 mi SSE 9.2 mph - N/A   Clear
5:55 PM 73.4 °F - 24.8 °F 16% 29.90 in 10.0 mi SSE 12.7 mph 16.1 mph N/A   Clear
6:15 PM 71.6 °F - 26.6 °F 19% 29.89 in 10.0 mi SSE 10.4 mph 17.3 mph N/A   Clear
6:35 PM 68.0 °F - 30.2 °F 24% 29.88 in 10.0 mi SSE 11.5 mph - N/A   Clear
6:55 PM 68.0 °F - 30.2 °F 24% 29.88 in 10.0 mi SSE 11.5 mph - N/A   Clear
7:15 PM 66.2 °F - 30.2 °F 26% 29.88 in 10.0 mi SSE 12.7 mph - N/A   Clear
7:35 PM 66.2 °F - 32.0 °F 28% 29.87 in 10.0 mi SE 11.5 mph - N/A   Clear
7:55 PM 64.4 °F - 33.8 °F 32% 29.87 in 10.0 mi SSE 11.5 mph - N/A   Clear
8:15 PM 64.4 °F - 33.8 °F 32% 29.86 in 10.0 mi SSE 10.4 mph - N/A   Clear
8:35 PM 64.4 °F - 33.8 °F 32% 29.85 in 10.0 mi SSE 12.7 mph - N/A   Clear
8:55 PM 64.4 °F - 32.0 °F 30% 29.85 in 10.0 mi SSE 13.8 mph 20.7 mph N/A   Clear
9:15 PM 64.4 °F - 32.0 °F 30% 29.85 in 10.0 mi SSE 13.8 mph 17.3 mph N/A   Clear
9:35 PM 64.4 °F - 32.0 °F 30% 29.84 in 10.0 mi SSE 13.8 mph 19.6 mph N/A   Clear
9:55 PM 64.4 °F - 33.8 °F 32% 29.84 in 10.0 mi South 10.4 mph - N/A   Clear
10:35 PM 64.4 °F - 35.6 °F 34% 29.83 in 10.0 mi South 10.4 mph - N/A   Clear
10:55 PM 64.4 °F - 37.4 °F 37% 29.83 in 10.0 mi South 12.7 mph 18.4 mph N/A   Clear
11:15 PM 69.8 °F - 39.2 °F 33% 29.82 in 10.0 mi SSW 17.3 mph 27.6 mph N/A   Clear
11:35 PM 69.8 °F - 41.0 °F 35% 29.81 in 10.0 mi SSW 18.4 mph 28.8 mph N/A   Clear
11:55 PM 68.0 °F - 42.8 °F 40% 29.81 in 10.0 mi SSW 19.6 mph 26.5 mph N/A   Clear